Météo par heure à Almaraz

Ce jour, 15 Mai, Samedi

Heure Température Précipitation Vent Pression Humidité
00:00 +14°C° 0 mm 1 m/s 732 mmHg 65%
01:00 +14°C° 0 mm 1 m/s 732 mmHg 69%
02:00 +13°C° 0 mm 1 m/s 731 mmHg 72%
03:00 +13°C° 0 mm 1 m/s 731 mmHg 76%
04:00 +13°C° 0 mm 1 m/s 731 mmHg 76%
05:00 +13°C° 0 mm 1 m/s 732 mmHg 77%
06:00 +13°C° 0 mm 1 m/s 732 mmHg 77%
07:00 +15°C° 0 mm 1 m/s 732 mmHg 69%
08:00 +18°C° 0 mm 2 m/s 732 mmHg 61%
09:00 +20°C° 0 mm 2 m/s 732 mmHg 53%
10:00 +22°C° 0 mm 3 m/s 732 mmHg 48%
11:00 +25°C° 0 mm 3 m/s 732 mmHg 43%
12:00 +27°C° 0 mm 4 m/s 732 mmHg 38%
13:00 +27°C° 0 mm 4 m/s 732 mmHg 38%
14:00 +28°C° 0 mm 5 m/s 731 mmHg 37%
15:00 +29°C° 0 mm 5 m/s 731 mmHg 37%
16:00 +28°C° 0 mm 5 m/s 731 mmHg 41%
17:00 +27°C° 0 mm 5 m/s 731 mmHg 45%
18:00 +26°C° 0 mm 5 m/s 731 mmHg 48%
19:00 +23°C° 0 mm 4 m/s 731 mmHg 55%
20:00 +21°C° 0 mm 3 m/s 731 mmHg 62%
21:00 +19°C° 0 mm 3 m/s 731 mmHg 69%
22:00 +18°C° 0 mm 2 m/s 731 mmHg 74%
23:00 +17°C° 0 mm 2 m/s 731 mmHg 78%

Demain, 16 Mai, Dimanche

Heure Température Précipitation Vent Pression Humidité
00:00 +16°C° 0 mm 2 m/s 731 mmHg 82%
01:00 +16°C° 0 mm 2 m/s 731 mmHg 84%
02:00 +15°C° 0 mm 2 m/s 731 mmHg 86%
03:00 +15°C° 0 mm 2 m/s 730 mmHg 87%
04:00 +15°C° 0 mm 2 m/s 731 mmHg 87%
05:00 +15°C° 0 mm 2 m/s 731 mmHg 86%
06:00 +15°C° 0 mm 1 m/s 731 mmHg 86%
07:00 +17°C° 0 mm 2 m/s 731 mmHg 76%
08:00 +19°C° 0 mm 3 m/s 731 mmHg 67%
09:00 +22°C° 0 mm 3 m/s 731 mmHg 57%
10:00 +25°C° 0 mm 4 m/s 731 mmHg 53%
11:00 +26°C° 0 mm 4 m/s 731 mmHg 48%
12:00 +28°C° 0 mm 5 m/s 731 mmHg 43%
13:00 +28°C° 0 mm 5 m/s 731 mmHg 42%
14:00 +29°C° 0 mm 5 m/s 730 mmHg 40%
15:00 +29°C° 0 mm 5 m/s 730 mmHg 38%
16:00 +29°C° 0 mm 5 m/s 730 mmHg 41%
17:00 +28°C° 0 mm 5 m/s 730 mmHg 44%
18:00 +27°C° 0 mm 4 m/s 730 mmHg 47%
19:00 +25°C° 0 mm 4 m/s 730 mmHg 54%
20:00 +21°C° 0 mm 3 m/s 730 mmHg 60%
21:00 +19°C° 0 mm 2 m/s 731 mmHg 67%
22:00 +18°C° 0 mm 2 m/s 731 mmHg 69%
23:00 +17°C° 0 mm 2 m/s 731 mmHg 72%

Après-demain, 17 Mai, Lundi

Heure Température Précipitation Vent Pression Humidité
00:00 +18°C° 0 mm 1 m/s 731 mmHg 75%
01:00 +16°C° 0 mm 1 m/s 730 mmHg 76%
02:00 +15°C° 0 mm 1 m/s 730 mmHg 77%
03:00 +15°C° 0 mm 1 m/s 730 mmHg 78%
04:00 +15°C° 0 mm 1 m/s 731 mmHg 77%
05:00 +15°C° 0 mm 1 m/s 731 mmHg 76%
06:00 +15°C° 0 mm 1 m/s 732 mmHg 75%
07:00 +18°C° 0 mm 1 m/s 732 mmHg 67%
08:00 +19°C° 0 mm 2 m/s 732 mmHg 59%
09:00 +23°C° 0 mm 2 m/s 732 mmHg 51%
10:00 +24°C° 0 mm 2 m/s 732 mmHg 46%
11:00 +26°C° 0 mm 3 m/s 732 mmHg 42%
12:00 +27°C° 0 mm 3 m/s 732 mmHg 37%
13:00 +28°C° 0 mm 4 m/s 732 mmHg 36%
14:00 +28°C° 0 mm 4 m/s 732 mmHg 34%
15:00 +29°C° 0 mm 5 m/s 732 mmHg 32%
16:00 +28°C° 0 mm 4 m/s 731 mmHg 35%
17:00 +27°C° 0 mm 4 m/s 731 mmHg 39%
18:00 +27°C° 0 mm 4 m/s 731 mmHg 42%
19:00 +24°C° 0 mm 3 m/s 732 mmHg 48%
20:00 +21°C° 0 mm 3 m/s 732 mmHg 54%
21:00 +19°C° 0 mm 2 m/s 732 mmHg 61%
22:00 +18°C° 0 mm 2 m/s 733 mmHg 64%
23:00 +17°C° 0 mm 2 m/s 733 mmHg 67%

18 Mai, Mardi

Heure Température Précipitation Vent Pression Humidité
00:00 +16°C° 0 mm 1 m/s 733 mmHg 70%
01:00 +15°C° 0 mm 1 m/s 733 mmHg 71%
02:00 +15°C° 0 mm 1 m/s 733 mmHg 73%
03:00 +14°C° 0 mm 1 m/s 733 mmHg 74%
04:00 +14°C° 0 mm 1 m/s 733 mmHg 72%
05:00 +14°C° 0 mm 1 m/s 734 mmHg 71%
06:00 +14°C° 0 mm 1 m/s 734 mmHg 69%
07:00 +16°C° 0 mm 1 m/s 734 mmHg 60%
08:00 +19°C° 0 mm 1 m/s 735 mmHg 51%
09:00 +22°C° 0 mm 1 m/s 735 mmHg 42%
10:00 +23°C° 0 mm 2 m/s 735 mmHg 37%
11:00 +25°C° 0 mm 2 m/s 735 mmHg 31%
12:00 +27°C° 0 mm 2 m/s 735 mmHg 25%
13:00 +27°C° 0 mm 3 m/s 735 mmHg 22%
14:00 +28°C° 0 mm 3 m/s 735 mmHg 20%
15:00 +28°C° 0 mm 4 m/s 734 mmHg 17%
16:00 +27°C° 0 mm 4 m/s 734 mmHg 20%
17:00 +26°C° 0 mm 4 m/s 734 mmHg 24%
18:00 +25°C° 0 mm 4 m/s 734 mmHg 28%
19:00 +22°C° 0 mm 3 m/s 735 mmHg 32%
20:00 +19°C° 0 mm 3 m/s 735 mmHg 36%
21:00 +17°C° 0 mm 2 m/s 735 mmHg 41%
22:00 +16°C° 0 mm 2 m/s 735 mmHg 43%
23:00 +16°C° 0 mm 1 m/s 735 mmHg 45%

19 Mai, Mercredi

Heure Température Précipitation Vent Pression Humidité
00:00 +15°C° 0 mm 1 m/s 735 mmHg 48%
01:00 +14°C° 0 mm 1 m/s 735 mmHg 49%
02:00 +14°C° 0 mm 1 m/s 735 mmHg 50%
03:00 +14°C° 0 mm 2 m/s 736 mmHg 51%
04:00 +14°C° 0 mm 2 m/s 736 mmHg 51%
05:00 +14°C° 0 mm 2 m/s 736 mmHg 51%
06:00 +14°C° 0 mm 2 m/s 736 mmHg 52%
07:00 +17°C° 0 mm 3 m/s 737 mmHg 46%
08:00 +19°C° 0 mm 3 m/s 737 mmHg 40%
09:00 +22°C° 0 mm 4 m/s 737 mmHg 34%
10:00 +25°C° 0 mm 4 m/s 737 mmHg 32%
11:00 +26°C° 0 mm 4 m/s 737 mmHg 30%
12:00 +28°C° 0 mm 3 m/s 737 mmHg 27%
13:00 +28°C° 0 mm 3 m/s 736 mmHg 26%
14:00 +29°C° 0 mm 3 m/s 736 mmHg 25%
15:00 +30°C° 0 mm 2 m/s 735 mmHg 24%
16:00 +29°C° 0 mm 2 m/s 735 mmHg 26%
17:00 +29°C° 0 mm 2 m/s 735 mmHg 28%
18:00 +28°C° 0 mm 2 m/s 735 mmHg 31%
19:00 +26°C° 0 mm 2 m/s 735 mmHg 34%
20:00 +24°C° 0 mm 1 m/s 735 mmHg 37%
21:00 +21°C° 0 mm 1 m/s 735 mmHg 41%
22:00 +21°C° 0 mm 1 m/s 735 mmHg 42%
23:00 +20°C° 0 mm 1 m/s 735 mmHg 43%

20 Mai, Jeudi

Heure Température Précipitation Vent Pression Humidité
00:00 +19°C° 0 mm 1 m/s 735 mmHg 44%
01:00 +19°C° 0 mm 1 m/s 735 mmHg 44%
02:00 +19°C° 0 mm 1 m/s 735 mmHg 44%
03:00 +18°C° 0 mm 1 m/s 735 mmHg 44%
04:00 +17°C° 0 mm 2 m/s 735 mmHg 46%
05:00 +17°C° 0 mm 2 m/s 735 mmHg 48%
06:00 +17°C° 0 mm 2 m/s 735 mmHg 50%
07:00 +20°C° 0 mm 2 m/s 736 mmHg 47%
08:00 +23°C° 0 mm 2 m/s 736 mmHg 45%
09:00 +26°C° 0 mm 3 m/s 736 mmHg 42%
10:00 +27°C° 0 mm 3 m/s 736 mmHg 39%
11:00 +29°C° 0 mm 3 m/s 736 mmHg 36%
12:00 +31°C° 0 mm 3 m/s 736 mmHg 33%
13:00 +32°C° 0 mm 2 m/s 735 mmHg 31%
14:00 +32°C° 0 mm 2 m/s 735 mmHg 29%
15:00 +34°C° 0 mm 2 m/s 734 mmHg 27%
16:00 +32°C° 0 mm 2 m/s 734 mmHg 30%
17:00 +32°C° 0 mm 2 m/s 734 mmHg 33%
18:00 +31°C° 0 mm 2 m/s 734 mmHg 35%
19:00 +29°C° 0 mm 2 m/s 734 mmHg 39%
20:00 +26°C° 0 mm 2 m/s 734 mmHg 43%
21:00 +24°C° 0 mm 2 m/s 734 mmHg 47%
22:00 +23°C° 0 mm 1 m/s 734 mmHg 48%
23:00 +23°C° 0 mm 1 m/s 734 mmHg 49%
Voir plus

Nous avons besoin de votre consentement

Meteoprog et ses fournisseurs de services peuvent stocker et accéder à des données personnelles telles que des cookies, des identifiants d'appareils ou d'autres technologies similaires sur votre appareil et traiter ces données pour personnaliser le contenu et les publicités, ainsi que pour fournir des fonctionnalités de médias sociaux et analyser le trafic.

  • Stocker et/ou accéder à des informations sur votre appareil

    Des cookies, des identifiants d'appareils ou d'autres informations peuvent être stockés ou accessibles sur votre appareil aux fins indiquées ci-dessus.

  • Annonces et contenus personnalisés, mesure des annonces et des contenus, connaissance de l'audience et développement de produits

    Les annonces et le contenu peuvent être personnalisés en fonction d'un profil. D'autres données peuvent être ajoutées pour mieux personnaliser les annonces et le contenu. Les performances des publicités et du contenu peuvent être mesurées. Il est possible d'obtenir des informations sur le public qui a vu les publicités et le contenu. Ces données peuvent être utilisées pour développer ou améliorer l'expérience de l'utilisateur, les systèmes et les logiciels.

En cliquant sur "J'accepte", vous autorisez l'utilisation de cookies, des identifiants d'appareils, des balises web ou d'autres technologies similaires. Vos paramètres peuvent être modifiés dans le navigateur de votre appareil.

Dans certains cas, des intérêts légitimes peuvent être invoqués plutôt qu'un consentement. Vous pouvez en savoir plus à ce sujet dans notre Politique de confidentialité et de cookies.